Regional Weather Roundup
Issued by NWS

Home | Current Version | Previous Version | Text Only | Print | Product List | Glossary Off
Versions: 1 2 3 4 5 6 7 8 9 10 11 12 13 14 15 16 17 18 19 20 21 22 23 24 25 26 27 28 29 30 31 32 33 34 35 36 37 38 39 40 41 42 43 44 45 46 47 48 49 50

557
ASUS43 KMKX 260011
RWRWI

WISCONSIN REGIONAL WEATHER ROUNDUP
NATIONAL WEATHER SERVICE MILWAUKEE/SULLIVAN WI
700 PM CDT SUN JUN 25 2017

NOTE: "FAIR" INDICATES FEW OR NO CLOUDS BELOW 12,000 FEET WITH NO
SIGNIFICANT WEATHER AND/OR OBSTRUCTIONS TO VISIBILITY.

WIZ001-002-006>008-014>016-023>028-260100-
NORTHWEST WISCONSIN

CITY           SKY/WX    TMP DP  RH WIND       PRES   REMARKS
SUPERIOR ARPT  NOT AVBL
ASHLAND        CLOUDY    55  48  77 NW8       30.08S
6HR MIN TEMP:  53; 6HR MAX TEMP:  57;

HAYWARD        MOSUNNY   59  48  67 VRB6      30.08F
6HR MIN TEMP:  51; 6HR MAX TEMP:  61; 6HR PCP:  0.12;

SIREN          MOSUNNY   58  48  68 NW7       30.11F
6HR MIN TEMP:  54; 6HR MAX TEMP:  65; 6HR PCP:  0.01;

CUMBERLAND     PTSUNNY   55  46  71 NW10      30.11R
RICE LAKE      LGT RAIN  59  44  58 NW10G22   30.12R
6HR MIN TEMP:  55; 6HR MAX TEMP:  64; 6HR PCP:  0.06;

CHETEK         CLOUDY    59  48  67 N7        30.10R
6HR MIN TEMP:  54; 6HR MAX TEMP:  64; 6HR PCP:  0.03;

LADYSMITH      LGT RAIN  55  49  81 NW9       30.10R
6HR MIN TEMP:  55; 6HR MAX TEMP:  62; 6HR PCP:  0.05;

EAU CLAIRE     SUNNY     63  43  48 NW10      30.09R
6HR MIN TEMP:  56; 6HR MAX TEMP:  66; 6HR PCP:  0.12;

MENOMONIE      MOSUNNY   65  46  51 NW9       30.09S
6HR MIN TEMP:  54; 6HR MAX TEMP:  66; 6HR PCP:  0.02;

NEW RICHMOND   MOSUNNY   64  40  40 NW13      30.11S
6HR MIN TEMP:  56; 6HR MAX TEMP:  67; 6HR PCP:  0.02;

OSCEOLA        SUNNY     65  39  38 NW13G20   30.13S
6HR MIN TEMP:  59; 6HR MAX TEMP:  68;

$$

WIZ003>005-009-010-017-018-260100-
NORTH CENTRAL WISCONSIN

CITY           SKY/WX    TMP DP  RH WIND       PRES   REMARKS
MANITOWISH WTR DRIZZLE   51  51 100 NW8       30.05R
6HR MIN TEMP:  51; 6HR MAX TEMP:  60; 6HR PCP:  0.11;

ARBOR VITAE    CLOUDY    53  50  90 NW9       30.04R
6HR MIN TEMP:  52; 6HR MAX TEMP:  64; 6HR PCP:  0.21;

WOODRUFF       CLOUDY    53  50  90 NW9       30.04R
6HR MIN TEMP:  52; 6HR MAX TEMP:  64; 6HR PCP:  0.21;

RHINELANDER    MOSUNNY   54  50  86 W9G20     30.05R
6HR MIN TEMP:  53; 6HR MAX TEMP:  65; 6HR PCP:  0.15;

EAGLE RIVER    HVY RAIN  53  52  95 W13G18    30.03R
6HR MIN TEMP:  52; 6HR MAX TEMP:  60;

LAND O LAKES   LGT RAIN  53  50  92 W5        30.04R
6HR MIN TEMP:  53; 6HR MAX TEMP:  65;

PHILLIPS       PTSUNNY   55  47  72 NW10      30.06S
6HR MIN TEMP:  52; 6HR MAX TEMP:  62; 6HR PCP:  0.23;

TOMAHAWK       NOT AVBL
MEDFORD        PTSUNNY   58  47  69 NW13      30.07S
6HR MIN TEMP:  54; 6HR MAX TEMP:  61; 6HR PCP:  0.11;

MERRILL        PTSUNNY   57  48  72 NW13G20   30.06R
6HR MIN TEMP:  55; 6HR MAX TEMP:  62; 6HR PCP:  0.03;

$$

WIZ029-030-035-036-043>047-260100-
CENTRAL WISCONSIN

CITY           SKY/WX    TMP DP  RH WIND       PRES   REMARKS
WAUSAU         PTSUNNY   59  48  67 NW14G23   30.04R
6HR MIN TEMP:  55; 6HR MAX TEMP:  63; 6HR PCP:  0.04;

MOSINEE        PTSUNNY   55  52  88 NW13G20   30.07R
MARSHFIELD     SUNNY     59  49  69 NW14G20   30.07S
6HR MIN TEMP:  54; 6HR MAX TEMP:  64; 6HR PCP:  0.19;

STEVENS POINT  CLOUDY    55  53  95 W7        30.06S
6HR MIN TEMP:  55; 6HR MAX TEMP:  64; 6HR PCP:  0.03;

WAUPACA        CLOUDY    61  57  87 W5        30.05S
6HR MIN TEMP:  57; 6HR MAX TEMP:  69;

WAUTOMA        PTSUNNY   58  55  90 W8        30.08R
6HR MIN TEMP:  56; 6HR MAX TEMP:  69; 6HR PCP:  0.04;

WISC RAPIDS    PTSUNNY   59  54  83 NW8       30.08S
6HR MIN TEMP:  54; 6HR MAX TEMP:  68; 6HR PCP:  0.16;

CAMP DOUGLAS   NOT AVBL
$$

WIZ011>013-019>022-031-037>040-048>050-260100-
NORTHEAST WISCONSIN

CITY           SKY/WX    TMP DP  RH WIND       PRES   REMARKS
ANTIGO         PTSUNNY   55  51  84 NW15      30.04S
6HR MIN TEMP:  52; 6HR MAX TEMP:  63; 6HR PCP:  0.36;

SHAWANO        PTSUNNY   60  56  85 W6        30.03R
6HR MIN TEMP:  57; 6HR MAX TEMP:  71; 6HR PCP:  0.18;

OCONTO         PTSUNNY   59  54  81 W7        29.99S
6HR MIN TEMP:  58; 6HR MAX TEMP:  69; 6HR PCP:  0.07;

STURGEON BAY     N/A     59  54  83 NW3         N/A
6HR MIN TEMP:  58; 6HR MAX TEMP:  65;

GREEN BAY      PTSUNNY   59  55  87 W12       30.03R
6HR MIN TEMP:  59; 6HR MAX TEMP:  71; 6HR PCP:  0.01;

MANITOWOC      CLOUDY    62  51  67 W8        30.02R
6HR MIN TEMP:  61; 6HR MAX TEMP:  69; 6HR PCP: TRACE;

APPLETON       PTSUNNY   55  52  88 W9        30.03R
CLINTONVILLE   CLOUDY    61  50  67 NW10G20   30.03S
OSHKOSH        LGT RAIN  58  53  84 W7        30.05R
6HR MIN TEMP:  57; 6HR MAX TEMP:  68; 6HR PCP:  0.12;

$$

WIZ032>034-041-042-053>061-260100-
SOUTHWEST WISCONSIN

CITY           SKY/WX    TMP DP  RH WIND       PRES   REMARKS
LA CROSSE      MOSUNNY   72  45  37 NW14      30.10R
6HR MIN TEMP:  62; 6HR MAX TEMP:  73; 6HR PCP:  0.03;

SPARTA         MOSUNNY   64  52  65 W6        30.10S
6HR MIN TEMP:  58; 6HR MAX TEMP:  66; 6HR PCP:  0.06;

VIROQUA        MOSUNNY   64  49  59 W9        30.11S
6HR MIN TEMP:  58; 6HR MAX TEMP:  64;

BOSCOBEL       SUNNY     67  49  52 W8G17     30.12S
6HR MIN TEMP:  62; 6HR MAX TEMP:  68; 6HR PCP: TRACE;

PRAIRIE DU CHI MOSUNNY   66  44  45 NW9       30.12S
6HR MIN TEMP:  60; 6HR MAX TEMP:  68;

PLATTEVILLE    CLOUDY    65  51  58 W15G21    30.13S
6HR MIN TEMP:  60; 6HR MAX TEMP:  66;

$$

WIZ056-057-062-063-064-067-068-260100-
SOUTH CENTRAL WISCONSIN

CITY           SKY/WX    TMP DP  RH WIND       PRES   REMARKS
REEDSBURG      CLOUDY    58  57  97 W3        30.10S
6HR MIN TEMP:  54; 6HR MAX TEMP:  67; 6HR PCP:  0.05;

BARABOO/DELLS  CLOUDY    56  54  92 W6        30.10S
6HR MIN TEMP:  54; 6HR MAX TEMP:  67; 6HR PCP:  0.08;

LONE ROCK      PTSUNNY   64  50  60 NW12      30.10S
6HR MIN TEMP:  59; 6HR MAX TEMP:  67; 6HR PCP:  0.01;

MINERAL POINT  PTSUNNY   64  52  63 W13       30.12S
MADISON        PTSUNNY   60  55  83 VRB6      30.09R
6HR MIN TEMP:  57; 6HR MAX TEMP:  66; 6HR PCP:  0.06;

MIDDLETON      CLOUDY    62  55  79 W8        30.10S
6HR MIN TEMP:  59; 6HR MAX TEMP:  68; 6HR PCP:  0.03;

WATERTOWN      NOT AVBL
MONROE         PTSUNNY   63  48  59 W17       30.11S
JANESVILLE     PTSUNNY   66  48  52 W13G20    30.10R
$$

WIZ051-052-058>065-066-070>072-260100-
SOUTHEAST WISCONSIN

CITY           SKY/WX    TMP DP  RH WIND       PRES   REMARKS
MILWAUKEE      MOSUNNY   68  47  46 W18       30.06R
6HR MIN TEMP:  68; 6HR MAX TEMP:  72;

WAUKESHA       CLOUDY    63  48  59 W14       30.08R
MILWAUKEE/TIMM MOSUNNY   66  45  45 W14G21    30.06R
RACINE         SUNNY     66  48  52 W15G22    30.07R
6HR MIN TEMP:  66; 6HR MAX TEMP:  71;

KENOSHA        MOSUNNY   65  49  56 W14       30.07R
6HR MIN TEMP:  65; 6HR MAX TEMP:  71;

FOND DU LAC    LGT RAIN  59  51  75 W10       30.06R
6HR MIN TEMP:  58; 6HR MAX TEMP:  69; 6HR PCP: TRACE;

SHEBOYGAN      CLOUDY    61  56  83 W9        30.03R
6HR MIN TEMP:  60; 6HR MAX TEMP:  69; 6HR PCP:  0.01;

WEST BEND      CLOUDY    63  46  55 W12G22    30.05R
JUNEAU         RAIN      56  52  85 W5        30.09R
6HR MIN TEMP:  56; 6HR MAX TEMP:  65;

$$

LSZ147-162-260100-
LAKE SUPERIOR

STATION/POSITION TIME  TEMP    WIND        PRES    WAVE
                       AIR SEA DIR/SP/G            HT/PER
                 (UTC) (F)     (DEG/KT/KT) (MB)    (FT/S)
W MID LAKE BUOY  2350   43 39  300/ 10/ 10 1017.5F   0
DEVILS ISLAND    2300   49     270/  6/  7 1018.1F
SAXON HARBOR     2330   56     300/ 13/ 16 1017.6S
$$

LMZ867-665-643>646-260100-
LAKE MICHIGAN

STATION/POSITION TIME  TEMP    WIND        PRES    WAVE
                       AIR SEA DIR/SP/G            HT/PER
                 (UTC) (F)     (DEG/KT/KT) (MB)    (FT/S)
CHAMBERS ISLAND  2340   59     330/  3/  6 1015.6R
S GREEN BAY BUOY 2330   60     290/  8/ 12 1015.4S
N MID LAKE BUOY  2350   58 57  210/ 12/ 14 1016.0R   2/ 5
NORTHPORT PIER   2340   58     290/  2/  5 1015.6R
KEWAUNEE LAKESHO 2342   57     330/  4/  7 1015.8R
SHEBOYGAN LAKESH 0000   62     290/ 12/ 14 1016.6R
PORT WASH



USA.gov is the U.S. government's official web portal to all federal, state and local government web resources and services.